Charlottetown, Prince Edward Island

3:24 AM AST on February 07, 2016 (GMT -0400)
Charlottetown

Weather History for CYYG - February, 2013

Change the Weather History Date:

Friday, February 15, 2013

  Actual Average Record
Temperature  
Mean Temperature 28 °F -  
Max Temperature 35 °F 30 °F 44 °F (2000)
Min Temperature 20 °F 14 °F -13 °F (2003)
Degree Days  
Heating Degree Days 38    
Moisture  
Dew Point 21 °F    
Average Humidity 78    
Maximum Humidity 95    
Minimum Humidity 44    
Precipitation  
Precipitation 0.00 in 0.12 in - ()
Sea Level Pressure  
Sea Level Pressure 30.03 in    
Wind  
Wind Speed 6 mph ()    
Max Wind Speed 10 mph    
Max Gust Speed -    
Visibility 14.9 miles    
Events Snow    
Averages and records for this station are not official NWS values.
T = Trace of Precipitation, MM = Missing Value Source: Averaged Metar Reports

Daily Weather History Graph

Daily Weather History Graph

Search for Another Location

Airport or City:

Trip Planner

Search our weather history database for the weather conditions in past years. The results will help you decide how hot, cold, wet, or windy it might be!

Date:

Astronomy

Feb. 15, 2013 Rise Set
Actual Time 7:15 AM AST 5:38 PM AST
Civil Twilight 6:44 AM AST 6:09 PM AST
Nautical Twilight 6:09 AM AST 6:44 PM AST
Astronomical Twilight 5:34 AM AST 7:19 PM AST
Moon 9:26 AM AST (2/15) 11:59 PM AST (2/15)
Length of Visible Light 11h 25m
Length of Day
10h 23m
Waxing Crescent, 29% of the Moon is Illuminated
Feb 15
Waxing Crescent
Feb 17
First Quarter
Feb 25
Full
Mar 4
Last Quarter
Mar 11
New

Hourly Weather History & Observations

Time (AST) Temp. Windchill Dew Point Humidity Pressure Visibility Wind Dir Wind Speed Gust Speed Precip Events Conditions
12:00 AM 24.8 °F 17.9 °F 23.0 °F 93% 29.96 in 15.0 mi WSW 5.8 mph - N/A   Scattered Clouds
1:00 AM 23.0 °F 15.8 °F 21.2 °F 93% 29.96 in 15.0 mi WSW 5.8 mph - N/A   Scattered Clouds
2:00 AM 23 °F - 22 °F 95% 29.96 in 15 mi WSW 5.8 mph - -   Scattered Clouds
2:00 AM 23.0 °F 15.8 °F 21.2 °F 93% 29.96 in 15.0 mi WSW 5.8 mph - N/A   Partly Cloudy
3:00 AM 21.2 °F 11.7 °F 19.4 °F 93% 29.98 in 15.0 mi WSW 8.1 mph - N/A   Partly Cloudy
4:00 AM 23.0 °F 13.9 °F 21.2 °F 93% 30.00 in 15.0 mi WSW 8.1 mph - N/A   Scattered Clouds
5:00 AM 23.0 °F 13.9 °F 21.2 °F 93% 30.01 in 15.0 mi WSW 8.1 mph - N/A   Scattered Clouds
6:00 AM 23.0 °F 14.7 °F 21.2 °F 93% 30.01 in 15.0 mi WSW 6.9 mph - N/A   Mostly Cloudy
7:00 AM 21.2 °F 11.7 °F 19.4 °F 93% 30.03 in 15.0 mi SW 8.1 mph - N/A   Mostly Cloudy
8:00 AM 22 °F - 20 °F 88% 30.04 in 15 mi WSW 5.8 mph - -   Scattered Clouds
8:00 AM 21.2 °F 13.6 °F 19.4 °F 93% 30.04 in 15.0 mi WSW 5.8 mph - N/A   Mostly Cloudy
9:00 AM 23.0 °F 17.0 °F 21.2 °F 93% 30.05 in 15.0 mi WSW 4.6 mph - N/A   Mostly Cloudy
10:00 AM 24.8 °F 17.9 °F 21.2 °F 86% 30.06 in 15.0 mi SW 5.8 mph - N/A   Mostly Cloudy
11:00 AM 28.4 °F 22.2 °F 21.2 °F 74% 30.06 in 15.0 mi WSW 5.8 mph - N/A   Scattered Clouds
12:00 PM 32.0 °F 24.8 °F 21.2 °F 64% 30.07 in 15.0 mi WSW 8.1 mph - N/A   Scattered Clouds
1:00 PM 33.8 °F 27.7 °F 21.2 °F 60% 30.05 in 15.0 mi West 6.9 mph - N/A   Scattered Clouds
2:00 PM 34 °F - 20 °F 44% 30.05 in 15 mi WSW 5.8 mph - -   Scattered Clouds
2:00 PM 33.8 °F 27.7 °F 19.4 °F 56% 30.05 in 15.0 mi WSW 6.9 mph - N/A   Scattered Clouds
3:00 PM 35.6 °F 31.7 °F 19.4 °F 52% 30.06 in 15.0 mi South 4.6 mph - N/A   Scattered Clouds
4:00 PM 33.8 °F 28.6 °F 21.2 °F 60% 30.05 in 15.0 mi SSE 5.8 mph - N/A   Mostly Cloudy
5:00 PM 32.0 °F 26.4 °F 23.0 °F 69% 30.05 in 15.0 mi SE 5.8 mph - N/A   Mostly Cloudy
6:00 PM 30.2 °F 25.4 °F 21.2 °F 69% 30.05 in 15.0 mi SE 4.6 mph - N/A   Mostly Cloudy
7:00 PM 30.2 °F 24.3 °F 21.2 °F 69% 30.05 in 15.0 mi SE 5.8 mph - N/A   Mostly Cloudy
8:00 PM 30 °F - 22 °F 60% 30.04 in 15 mi SSE 9.2 mph - -   Mostly Cloudy
8:00 PM 30.2 °F 21.9 °F 21.2 °F 69% 30.04 in 15.0 mi SSE 9.2 mph - N/A   Mostly Cloudy
9:00 PM 30.2 °F 21.3 °F 21.2 °F 69% 30.04 in 15.0 mi SSE 10.4 mph - N/A   Mostly Cloudy
10:00 PM 30.2 °F 22.6 °F 24.8 °F 80% 30.05 in 15.0 mi South 8.1 mph - N/A   Overcast
10:31 PM 32.0 °F 25.6 °F 24.8 °F 75% 30.05 in 12.0 mi South 6.9 mph - N/A Snow Light Snow Showers
11:00 PM 32.0 °F 24.2 °F 26.6 °F 80% 30.04 in 15.0 mi South 9.2 mph - N/A   Overcast